Regional Weather Roundup
Issued by NWS

Home | Current Version | Previous Version | Text Only | Print | Product List | Glossary On
Versions: 1 2 3 4 5 6 7 8 9 10 11 12 13 14 15 16 17 18 19 20 21 22 23 24 25 26 27 28 29 30 31 32 33 34 35 36 37 38 39 40 41 42 43 44 45 46 47 48 49 50
000
ASUS45 KPSR 292210
RWRAZ

ARIZONA REGIONAL HOURLY WEATHER ROUNDUP
NATIONAL WEATHER SERVICE PHOENIX AZ
300 PM MST SUN MAR 29 2015

NOTE: FAIR INDICATES FEW OR NO CLOUDS BELOW 12,000 FEET WITH NO
SIGNIFICANT WEATHER AND/OR OBSTRUCTIONS TO VISIBILITY.

AZZ001>003-036-292300-
NORTHWEST ARIZONA

CITY           SKY/WX    TMP DP  RH WIND       PRES   REMARKS
BULLHEAD CITY  SUNNY     93  21   7 SW5       29.95F
KINGMAN        MOSUNNY   82  21  10 SW13      30.09F
$$

AZZ004>008-015-016-018-292300-
NORTH CENTRAL ARIZONA

CITY           SKY/WX    TMP DP  RH WIND       PRES   REMARKS
GRAND CANYON   PTSUNNY   71  18  13 NE12      30.25F
WILLIAMS       MOSUNNY   70  18  13 S13       30.32F
PRESCOTT       MOSUNNY   76  18  11 S9        30.18F
FLAGSTAFF      PTSUNNY   67  14  13 S12       30.27F
PAYSON         PTSUNNY   75  16  10 W5G13     30.22F
PAGE           SUNNY     79  19  10 NE9       30.12F
$$

AZZ009>014-017-292300-
NORTHEAST ARIZONA

CITY           SKY/WX    TMP DP  RH WIND       PRES   REMARKS
WINSLOW        MOSUNNY   80   9   6 VRB3      30.15F
SAINT JOHNS    MOSUNNY   76  12   8 W12       30.16F
WINDOW ROCK    MOSUNNY   75  14  10 MISG      30.21F
SHOW LOW       MOSUNNY   70   9   9 SW15G22   30.26F
$$

AZZ023-292300-
GREATER PHOENIX AREA

CITY           SKY/WX    TMP DP  RH WIND       PRES   REMARKS
PHOENIX        PTSUNNY   96  18   6 W8        29.94F
BUCKEYE        SUNNY     91  27   9 CALM      29.95F
GLENDALE       PTSUNNY   95  21   7 S7        29.96F
DEER VALLEY    SUNNY     90  14   6 S7G17     29.97F
SCOTTSDALE     SUNNY     92  15   6 VRB7      29.98F
MESA-FALCON    PTSUNNY   93  14   5 W7          N/A
CHANDLER       PTSUNNY   93  21   7 S7        29.96F
$$

AZZ027-028-292300-
SOUTHWEST MARICOPA COUNTY AND PINAL COUNTY

CITY           SKY/WX    TMP DP  RH WIND       PRES   REMARKS
CASA GRANDE    MOSUNNY   91  28  10 CALM      29.96F
$$

AZZ503-504-507>509-292300-
SOUTHEAST ARIZONA

CITY           SKY/WX    TMP DP  RH WIND       PRES   REMARKS
TUCSON         MOSUNNY   92  17   6 W16G23    30.04F
RYAN FIELD       N/A     91  27   9 W14G21    30.04F
NOGALES        PTSUNNY   85  19   9 W12G17    30.12F
DOUGLAS        PTSUNNY   83  23  11 S12       30.13F
SAFFORD        PTSUNNY   88  18   7 VRB3      30.04F
$$

AZZ020-021-025-026-031-292300-
SOUTHWEST ARIZONA

CITY           SKY/WX    TMP DP  RH WIND       PRES   REMARKS
YUMA           SUNNY     96  31  10 CALM      29.90F
$$

CAZ031-033-041-043-047-048-061-292300-
SOUTHERN CALIFORNIA

CITY           SKY/WX    TMP DP  RH WIND       PRES   REMARKS
DOWNTOWN L.A.  SUNNY     76  57  51 VRB5      29.98F
L.A. AIRPORT   MOSUNNY   67  57  70 W13       30.00F
SAN DIEGO      MOSUNNY   72  56  57 W8        30.02F
BURBANK        SUNNY     83  45  26 S9        29.98F
ONTARIO        MOSUNNY   87  41  19 W13G21    29.98F
RIVERSIDE      MOSUNNY   87  43  21 W14G20    29.97F
PALM SPRINGS   PTSUNNY   97  27   8 SE10      29.91F
EL CENTRO NAS  MOSUNNY   94  27   9 VRB3      29.89F
IMPERIAL       MOSUNNY   94  29  10 E5        29.89F
BLYTHE         MOSUNNY   94  31  10 S7        29.92F
NEEDLES        MOSUNNY   94  22   7 VRB3      29.95F
$$

NVZ020-UTZ003-292300-
SOUTHERN NEVADA-UTAH

CITY           SKY/WX    TMP DP  RH WIND       PRES   REMARKS
LAS VEGAS      MOSUNNY   87  18   8 VRB3      29.98F
SALT LAKE CITY SUNNY     65  21  18 N13       30.22F
$$

NMZ009-TXZ055-292300-
NEW MEXICO-WEST TEXAS

CITY           SKY/WX    TMP DP  RH WIND       PRES   REMARKS
ALBUQUERQUE    PTSUNNY   77  18  11 CALM      30.15F
EL PASO        PTSUNNY   87   7   5 W8        30.09F
$$


........................KEY........................
SKY/WX - SKY CONDITION/WEATHER
TMP    - TEMPERATURE IN FAHRENHEIT
DP     - DEW POINT IN FAHRENHEIT
RH     - RELATIVE HUMIDITY IN PERCENT
WIND   - DIRECTION AND SPEED IN MILES PER HOUR (MPH)
VRB    - VARIABLE WIND DIRECTION
PRES   - MEAN SEA LEVEL PRESSURE IN INCHES OF MERCURY
         F - FALLING PRESSURE   R - RISING PRESSURE
         S - STEADY PRESSURE
VSB    - VISIBILITY IN MILES
HX     - HEAT INDEX IN FAHRENHEIT
WCI    - WIND CHILL INDEX IN FAHRENHEIT
TC     - TEMPERATURE IN CELSIUS WHICH IS ALSO KNOWN AS
         TEMPERATURE IN CENTIGRADE
AFB    - AIR FORCE BASE
         LUKE AFB IS LUKE AIR FORCE BASE
         DAVIS-MONTHAN IS DAVIS-MONTHAN AIR FORCE BASE
NAS    - NAVAL AIR STATION
         EL CENTRO NAS IS EL CENTRO NAVAL AIR STATION
N/A    - NOT AVAILABLE



USA.gov is the U.S. government's official web portal to all federal, state and local government web resources and services.